Peachtree City, GA

6:31 AM EDT on August 19, 2017 (GMT -0400)
Peachtree City-Falcon

Weather History for KFFC - November, 2013

Change the Weather History Date:

Wednesday, November 20, 2013

  Actual Average Record
Temperature  
Mean Temperature 48 °F 51 °F  
Max Temperature 58 °F 64 °F 73 °F (2007)
Min Temperature 37 °F 39 °F 24 °F (2014)
Degree Days  
Heating Degree Days 17 14  
Month to date heating degree days 234 222  
Since 1 July heating degree days 346 388  
Cooling Degree Days 0 0  
Month to date cooling degree days 0 2  
Year to date cooling degree days 1551 1650  
Moisture  
Dew Point 32 °F    
Average Humidity 65    
Maximum Humidity 92    
Minimum Humidity 38    
Precipitation  
Precipitation 0.02 in 0.13 in 0.72 in (2005)
Month to date precipitation 0.55 2.52  
Year to date precipitation 44.50  
Snow  
Snow 0.00 in - - ()
Month to date snowfall 0.0  
Since 1 July snowfall 0.0  
Since 1 September snowfall 0.0  
Snow Depth 0.00 in    
Sea Level Pressure  
Sea Level Pressure 30.26 in    
Wind  
Wind Speed 7 mph (East)    
Max Wind Speed 15 mph    
Max Gust Speed 22 mph    
Visibility 10 miles    
Events Rain    
T = Trace of Precipitation, MM = Missing Value Source: NWS Daily Summary

Daily Weather History Graph

Daily Weather History Graph

Search for Another Location

Airport or City:

Trip Planner

Search our weather history database for the weather conditions in past years. The results will help you decide how hot, cold, wet, or windy it might be!

Date:

Astronomy

Nov. 20, 2013 Rise Set
Actual Time 7:14 AM EST 5:33 PM EST
Civil Twilight 6:47 AM EST 5:59 PM EST
Nautical Twilight 6:17 AM EST 6:30 PM EST
Astronomical Twilight 5:47 AM EST 6:59 PM EST
Moon 8:15 PM EST (11/20) 9:38 AM EST (11/20)
Length of Visible Light 11h 12m
Length of Day
10h 18m
Waning Gibbous, 91% of the Moon is Illuminated
Nov 20
Waning Gibbous
Nov 25
Last Quarter
Dec 2
New
Dec 9
First Quarter
Dec 17
Full

Hourly Weather History & Observations

Time (EST) Temp. Windchill Dew Point Humidity Pressure Visibility Wind Dir Wind Speed Gust Speed Precip Events Conditions
12:53 AM 37.0 °F 34.5 °F 35.1 °F 93% 30.18 in 10.0 mi East 3.5 mph - N/A   Clear
1:53 AM 45.0 °F 41.2 °F 28.0 °F 52% 30.18 in 10.0 mi East 6.9 mph - N/A   Clear
2:53 AM 43.0 °F 40.3 °F 28.0 °F 56% 30.19 in 10.0 mi East 4.6 mph - N/A   Clear
3:53 AM 44.1 °F 40.8 °F 28.0 °F 53% 30.20 in 10.0 mi East 5.8 mph - N/A   Clear
4:53 AM 44.1 °F 40.8 °F 28.0 °F 53% 30.21 in 10.0 mi East 5.8 mph - N/A   Clear
5:53 AM 43.0 °F 40.3 °F 28.0 °F 56% 30.23 in 10.0 mi East 4.6 mph - N/A   Clear
6:53 AM 41.0 °F - 28.9 °F 62% 30.26 in 10.0 mi Calm Calm - N/A   Clear
7:53 AM 42.1 °F 40.2 °F 28.9 °F 60% 30.28 in 10.0 mi Variable 3.5 mph - N/A   Clear
8:53 AM 45.0 °F 41.8 °F 30.0 °F 56% 30.30 in 10.0 mi East 5.8 mph - N/A   Clear
9:53 AM 48.0 °F - 30.9 °F 52% 30.31 in 10.0 mi East 6.9 mph - N/A   Overcast
10:53 AM 51.1 °F - 30.0 °F 44% 30.31 in 10.0 mi East 12.7 mph - N/A   Scattered Clouds
11:53 AM 54.0 °F - 30.9 °F 41% 30.30 in 10.0 mi ESE 12.7 mph 17.3 mph N/A   Mostly Cloudy
12:53 PM 55.0 °F - 30.9 °F 40% 30.27 in 10.0 mi East 9.2 mph - N/A   Mostly Cloudy
1:53 PM 55.9 °F - 32.0 °F 40% 30.25 in 10.0 mi ENE 9.2 mph 18.4 mph N/A   Mostly Cloudy
2:53 PM 57.0 °F - 34.0 °F 42% 30.23 in 10.0 mi ESE 11.5 mph - N/A   Scattered Clouds
3:53 PM 55.9 °F - 35.1 °F 45% 30.23 in 10.0 mi ESE 9.2 mph - N/A   Overcast
4:50 PM 55.4 °F - 35.6 °F 47% 30.23 in 10.0 mi East 6.9 mph - N/A   Overcast
4:53 PM 55.0 °F - 35.1 °F 47% 30.24 in 10.0 mi East 6.9 mph - N/A   Overcast
5:20 PM 54.0 °F - 34.0 °F 47% 30.24 in 10.0 mi East 9.2 mph 17.3 mph N/A   Overcast
5:50 PM 53.6 °F - 33.8 °F 47% 30.25 in 10.0 mi East 8.1 mph - N/A   Overcast
5:53 PM 54.0 °F - 34.0 °F 47% 30.27 in 10.0 mi East 9.2 mph - N/A   Overcast
6:53 PM 53.1 °F - 34.0 °F 48% 30.29 in 9.0 mi East 10.4 mph 19.6 mph N/A   Overcast
7:53 PM 53.1 °F - 33.1 °F 47% 30.30 in 9.0 mi East 8.1 mph - N/A   Overcast
8:53 PM 52.0 °F - 33.1 °F 49% 30.32 in 10.0 mi East 8.1 mph - N/A   Overcast
9:53 PM 52.0 °F - 34.0 °F 50% 30.33 in 10.0 mi East 5.8 mph - 0.00 in   Overcast
10:53 PM 52.0 °F - 35.1 °F 53% 30.33 in 10.0 mi East 5.8 mph - 0.00 in Rain Light Rain
11:53 PM 48.9 °F - 39.0 °F 69% 30.33 in 10.0 mi Variable 5.8 mph - 0.02 in   Overcast